Weather History for Seminole, TX

Change the Weather History Date:

Thursday, May 23, 2013

  Actual Average (KHOB) Record (KHOB)
Temperature  
Mean Temperature 82 °F -  
Max Temperature 98 °F 87 °F 105 °F (2000)
Min Temperature 65 °F 58 °F 50 °F (1956)
Cooling Degree Days 16    
Growing Degree Days 32 (Base 50)    
Moisture  
Dew Point 52 °F    
Average Humidity 45    
Maximum Humidity 77    
Minimum Humidity 13    
Precipitation  
Precipitation 0.00 in - - ()
Sea Level Pressure  
Sea Level Pressure 29.94 in    
Wind  
Wind Speed 11 mph (South)    
Max Wind Speed 33 mph    
Max Gust Speed 60 mph    
Visibility 8 miles    
Events Rain    
Averages and records for this station are not official NWS values.
T = Trace of Precipitation, MM = Missing Value Source: NWS Daily Summary

Daily Weather History Graph

Daily Weather History Graph

Search for Another Location

Airport:

Trip Planner

Search our weather history database for the weather conditions in past years. The results will help you decide how hot, cold, wet, or windy it might be!

Date:

Astronomy

May. 23, 2013 Rise Set
Actual Time 6:47 AM CDT 8:48 PM CDT
Civil Twilight 6:19 AM CDT 9:15 PM CDT
Nautical Twilight 5:45 AM CDT 9:49 PM CDT
Astronomical Twilight 5:09 AM CDT 10:25 PM CDT
Moon 7:26 PM CDT (5/23) 5:28 AM CDT (5/23)
Length of Visible Light 14h 56m
Length of Day
14h 01m
Waxing Gibbous, 97% of the Moon is Illuminated
May 23
Waxing Gibbous
May 24
Full
May 31
Last Quarter
Jun 8
New
Jun 16
First Quarter

Hourly Weather History & Observations

Time (CDT) Temp. Heat Index Dew Point Humidity Pressure Visibility Wind Dir Wind Speed Gust Speed Precip Events Conditions
12:15 AM 78.1 °F - 42.4 °F 28% 29.88 in 10.0 mi South 12.7 mph - N/A   Clear
12:35 AM 77.5 °F - 43.5 °F 30% 29.88 in 10.0 mi South 11.5 mph - N/A   Clear
12:55 AM 77.0 °F - 44.8 °F 32% 29.89 in 10.0 mi South 9.2 mph - N/A   Clear
1:15 AM 76.1 °F - 46.2 °F 35% 29.89 in 10.0 mi South 9.2 mph - N/A   Clear
1:35 AM 75.9 °F - 48.4 °F 38% 29.89 in 10.0 mi South 9.2 mph - N/A   Clear
1:55 AM 75.9 °F - 50.7 °F 41% 29.89 in 10.0 mi South 11.5 mph - N/A   Clear
2:15 AM 75.0 °F - 51.8 °F 44% 29.89 in 10.0 mi South 9.2 mph - N/A   Clear
2:35 AM 74.1 °F - 52.3 °F 46% 29.89 in 10.0 mi South 8.1 mph - N/A   Clear
2:55 AM 73.4 °F - 52.9 °F 49% 29.89 in 10.0 mi South 6.9 mph - N/A   Clear
3:15 AM 72.5 °F - 53.6 °F 51% 29.89 in 10.0 mi South 5.8 mph - N/A   Clear
3:35 AM 71.2 °F - 53.8 °F 54% 29.89 in 10.0 mi South 5.8 mph - N/A   Clear
3:55 AM 71.6 °F - 54.9 °F 55% 29.90 in 10.0 mi South 6.9 mph - N/A   Clear
4:15 AM 71.8 °F - 55.9 °F 57% 29.90 in 10.0 mi South 8.1 mph - N/A   Clear
4:35 AM 71.2 °F - 56.8 °F 60% 29.90 in 10.0 mi South 6.9 mph - N/A   Clear
4:55 AM 71.6 °F - 58.1 °F 62% 29.91 in 10.0 mi South 8.1 mph - N/A   Clear
5:15 AM 70.7 °F - 58.8 °F 66% 29.92 in 10.0 mi SSE 6.9 mph - N/A   Clear
5:35 AM 70.0 °F - 58.8 °F 68% 29.92 in 10.0 mi SSE 6.9 mph - N/A   Clear
5:55 AM 69.3 °F - 58.6 °F 69% 29.92 in 10.0 mi SSE 6.9 mph - N/A   Clear
6:15 AM 68.4 °F - 59.0 °F 72% 29.93 in 10.0 mi South 5.8 mph - N/A   Clear
6:35 AM 68.0 °F - 59.4 °F 74% 29.93 in 7.0 mi SSE 5.8 mph - N/A   Scattered Clouds
6:55 AM 67.5 °F - 59.5 °F 76% 29.94 in 7.0 mi SSE 4.6 mph - N/A   Scattered Clouds
7:15 AM 67.3 °F - 59.9 °F 77% 29.94 in 7.0 mi South 3.5 mph - N/A   Scattered Clouds
7:35 AM 68.0 °F - 60.3 °F 76% 29.95 in 5.0 mi South 5.8 mph - N/A   Haze
7:55 AM 69.4 °F - 61.3 °F 75% 29.95 in 5.0 mi South 6.9 mph - N/A   Haze
8:15 AM 71.6 °F - 62.4 °F 73% 29.96 in 5.0 mi South 9.2 mph - N/A   Haze
8:35 AM 73.4 °F - 62.6 °F 69% 29.96 in 5.0 mi South 13.8 mph - N/A   Haze
8:55 AM 74.3 °F - 62.6 °F 67% 29.96 in 7.0 mi South 12.7 mph 20.7 mph N/A   Clear
9:15 AM 75.2 °F - 62.6 °F 65% 29.97 in 7.0 mi South 13.8 mph 19.6 mph N/A   Clear
9:35 AM 76.1 °F - 62.6 °F 63% 29.98 in 7.0 mi South 15.0 mph - N/A   Clear
9:55 AM 77.5 °F - 62.1 °F 59% 29.98 in 7.0 mi South 13.8 mph - N/A   Clear
10:15 AM 80.1 °F 81.2 °F 62.2 °F 54% 29.98 in 7.0 mi South 13.8 mph 17.3 mph N/A   Clear
10:35 AM 81.0 °F 81.8 °F 61.3 °F 51% 29.98 in 7.0 mi South 10.4 mph 18.4 mph N/A   Clear
10:55 AM 82.0 °F 82.5 °F 60.6 °F 48% 29.98 in 7.0 mi South 12.7 mph 18.4 mph N/A   Clear
11:15 AM 84.2 °F 83.7 °F 58.1 °F 41% 29.98 in 10.0 mi South 12.7 mph 17.3 mph N/A   Clear
11:35 AM 86.4 °F 85.2 °F 57.0 °F 37% 29.98 in 10.0 mi SSW 10.4 mph 16.1 mph N/A   Clear
11:55 AM 88.5 °F 87.1 °F 56.5 °F 34% 29.97 in 10.0 mi SSW 8.1 mph 16.1 mph N/A   Clear
12:15 PM 89.2 °F 87.5 °F 55.4 °F 32% 29.97 in 10.0 mi South 11.5 mph - N/A   Clear
12:35 PM 90.5 °F 88.3 °F 54.5 °F 29% 29.97 in 10.0 mi South 10.4 mph - N/A   Clear
12:55 PM 91.0 °F - 51.3 °F 26% 29.97 in 10.0 mi South 10.4 mph - N/A   Clear
1:15 PM 93.9 °F - 48.2 °F 21% 29.96 in 10.0 mi SSW 9.2 mph - N/A   Clear
1:35 PM 94.3 °F - 45.0 °F 18% 29.95 in 10.0 mi SSW 9.2 mph - N/A   Clear
1:55 PM 94.1 °F - 44.1 °F 18% 29.95 in 10.0 mi South 8.1 mph - N/A   Clear
2:15 PM 95.5 °F - 41.7 °F 16% 29.94 in 10.0 mi South 6.9 mph 16.1 mph N/A   Clear
2:35 PM 96.8 °F - 42.8 °F 16% 29.93 in 10.0 mi SSE 10.4 mph 19.6 mph N/A   Clear
2:55 PM 98.1 °F - 40.5 °F 14% 29.92 in 10.0 mi SSE 10.4 mph - N/A   Clear
3:15 PM 97.3 °F - 40.8 °F 14% 29.90 in 7.0 mi SSE 10.4 mph 18.4 mph N/A   Clear
3:35 PM 97.0 °F - 41.7 °F 15% 29.89 in 10.0 mi South 12.7 mph 17.3 mph N/A   Clear
3:55 PM 95.2 °F - 41.5 °F 16% 29.89 in 10.0 mi SSE 10.4 mph 16.1 mph N/A   Clear
4:15 PM 95.0 °F - 40.5 °F 15% 29.88 in 10.0 mi South 13.8 mph 18.4 mph N/A   Clear
4:35 PM 94.1 °F - 40.3 °F 15% 29.87 in 10.0 mi South 11.5 mph - N/A   Clear
4:55 PM 93.7 °F - 39.0 °F 15% 29.86 in 10.0 mi SSE 8.1 mph - N/A   Clear
5:15 PM 93.4 °F - 38.3 °F 15% 29.85 in 10.0 mi SSE 6.9 mph - N/A   Clear
5:35 PM 92.5 °F - 38.5 °F 15% 29.87 in 10.0 mi South 8.1 mph - N/A   Clear
5:55 PM 92.3 °F - 35.1 °F 13% 29.86 in 2.0 mi South 20.7 mph 34.5 mph N/A   Haze
6:15 PM 76.1 °F - 46.6 °F 35% 29.89 in 0.5 mi South 33.4 mph 59.8 mph N/A Rain Rain
6:35 PM 77.5 °F - 45.9 °F 33% 29.93 in 7.0 mi South 20.7 mph 38.0 mph N/A   Scattered Clouds
6:55 PM 79.3 °F - 43.3 °F 28% 29.94 in 10.0 mi South 15.0 mph 27.6 mph N/A   Clear
7:15 PM 77.5 °F - 45.1 °F 32% 29.94 in 10.0 mi SSW 25.3 mph 34.5 mph N/A   Scattered Clouds
7:35 PM 80.1 °F - 42.4 °F 26% 29.92 in 10.0 mi South 23.0 mph 35.7 mph N/A   Clear
7:55 PM 77.2 °F - 44.6 °F 31% 29.84 in 7.0 mi SE 28.8 mph 36.8 mph N/A   Clear
8:15 PM 77.9 °F - 44.2 °F 30% 29.89 in 10.0 mi South 15.0 mph 19.6 mph N/A   Clear
8:35 PM 78.1 °F - 45.1 °F 31% 29.92 in 10.0 mi SSW 13.8 mph - N/A   Clear
8:55 PM 76.1 °F - 51.1 °F 41% 30.02 in 7.0 mi East 18.4 mph 23.0 mph N/A   Scattered Clouds
9:15 PM 70.0 °F - 58.3 °F 66% 30.04 in 1.8 mi ESE 24.2 mph 31.1 mph N/A   Haze
9:35 PM 66.7 °F - 57.9 °F 73% 30.06 in 3.0 mi ESE 15.0 mph 21.9 mph N/A   Haze
9:55 PM 67.1 °F - 56.7 °F 69% 30.06 in 5.0 mi ESE 13.8 mph 26.5 mph N/A   Haze
10:15 PM 65.5 °F - 56.5 °F 73% 30.05 in 7.0 mi SE 17.3 mph - N/A   Overcast
10:35 PM 65.7 °F - 55.9 °F 71% 30.06 in 7.0 mi SE 16.1 mph 23.0 mph N/A   Overcast
10:55 PM 65.5 °F - 56.1 °F 72% 30.09 in 10.0 mi SE 10.4 mph - N/A   Mostly Cloudy
11:15 PM 65.8 °F - 55.6 °F 69% 30.09 in 10.0 mi ESE 15.0 mph 19.6 mph N/A   Clear
11:35 PM 65.8 °F - 55.6 °F 69% 30.08 in 10.0 mi ESE 18.4 mph 25.3 mph N/A   Clear
11:55 PM 65.3 °F - 54.9 °F 69% 30.09 in 10.0 mi ESE 18.4 mph 26.5 mph N/A   Scattered Clouds